| time (UTC) | temp F | wind direction | speed MPH | gust MPH | rain 1hr in | rain 24hr in | rain mn in | humidity % | barometer mb |
| 20260505124550 | 69 | 108 | 7.0 | 13.0 | 0.00 | 0.00 | 0.00 | 65 | 1017.6 |
| 20260505123055 | 70 | 108 | 2.0 | 7.0 | 0.00 | 0.00 | 0.00 | 65 | 1017.8 |
| 20260505121550 | 69 | 108 | 5.0 | 11.0 | 0.00 | 0.00 | 0.00 | 65 | 1017.8 |
| 20260505120048 | 68 | 116 | 4.0 | 15.0 | 0.00 | 0.00 | 0.00 | 65 | 1017.9 |
| 20260505114544 | 68 | 110 | 4.0 | 11.0 | 0.00 | 0.00 | 0.00 | 66 | 1018.3 |
| 20260505113048 | 68 | 110 | 7.0 | 13.0 | 0.00 | 0.00 | 0.00 | 66 | 1018.4 |
| 20260505111546 | 67 | 111 | 7.0 | 14.0 | 0.00 | 0.00 | 0.00 | 67 | 1018.6 |
| 20260505101551 | 65 | 118 | 5.0 | 16.0 | 0.00 | 0.00 | 0.00 | 68 | 1018.6 |
| 20260505100044 | 65 | 117 | 6.0 | 13.0 | 0.00 | 0.00 | 0.00 | 69 | 1018.6 |
| 20260505094557 | 64 | 117 | 11.0 | 16.0 | 0.00 | 0.00 | 0.00 | 69 | 1018.7 |
| 20260505093053 | 64 | 116 | 11.0 | 19.0 | 0.00 | 0.00 | 0.00 | 69 | 1018.8 |
| 20260505091542 | 63 | 120 | 11.0 | 16.0 | 0.00 | 0.00 | 0.00 | 70 | 1018.6 |
| 20260505090055 | 63 | 120 | 10.0 | 16.0 | 0.00 | 0.00 | 0.00 | 70 | 1018.5 |
| 20260505084544 | 62 | 120 | 6.0 | 16.0 | 0.00 | 0.00 | 0.00 | 70 | 1018.6 |
| 20260505083101 | 62 | 120 | 7.0 | 14.0 | 0.00 | 0.00 | 0.00 | 71 | 1018.7 |
| 20260505081544 | 61 | 120 | 7.0 | 15.0 | 0.00 | 0.00 | 0.00 | 71 | 1018.6 |
| 20260505080045 | 60 | 120 | 4.0 | 15.0 | 0.00 | 0.00 | 0.00 | 71 | 1018.6 |
| 20260505074542 | 59 | 120 | 9.0 | 14.0 | 0.00 | 0.00 | 0.00 | 71 | 1018.7 |
| 20260505073044 | 59 | 120 | 11.0 | 17.0 | 0.00 | 0.00 | 0.00 | 71 | 1018.7 |
| 20260505071545 | 58 | 119 | 6.0 | 12.0 | 0.00 | 0.00 | 0.00 | 71 | 1018.6 |
| 20260505070059 | 57 | 118 | 9.0 | 14.0 | 0.00 | 0.00 | 0.00 | 71 | 1018.5 |
| 20260505064550 | 57 | 119 | 9.0 | 15.0 | 0.00 | 0.00 | 0.00 | 70 | 1018.4 |
| 20260505063044 | 56 | 118 | 9.0 | 18.0 | 0.00 | 0.00 | 0.00 | 70 | 1018.3 |
| 20260505061610 | 56 | 117 | 9.0 | 16.0 | 0.00 | 0.00 | 0.00 | 70 | 1018.3 |
| 20260505060057 | 55 | 117 | 8.0 | 14.0 | 0.00 | 0.00 | 0.00 | 70 | 1018.3 |
| 20260505054555 | 55 | 117 | 7.0 | 16.0 | 0.00 | 0.00 | 0.00 | 69 | 1018.2 |
| 20260505053045 | 55 | 117 | 8.0 | 12.0 | 0.00 | 0.00 | 0.00 | 69 | 1018.1 |
| 20260505051544 | 55 | 117 | 7.0 | 15.0 | 0.00 | 0.00 | 0.00 | 69 | 1018.0 |
| 20260505041548 | 55 | 115 | 7.0 | 18.0 | 0.00 | 0.00 | 0.00 | 68 | 1017.9 |
| 20260505040059 | 56 | 112 | 9.0 | 16.0 | 0.00 | 0.00 | 0.00 | 68 | 1018.0 |
| 20260505034543 | 56 | 110 | 9.0 | 17.0 | 0.00 | 0.00 | 0.00 | 67 | 1017.9 |
| 20260505033049 | 56 | 109 | 9.0 | 16.0 | 0.00 | 0.00 | 0.00 | 67 | 1017.9 |
| 20260505031551 | 56 | 104 | 9.0 | 17.0 | 0.00 | 0.00 | 0.00 | 67 | 1017.9 |
| 20260505030055 | 56 | 101 | 9.0 | 16.0 | 0.00 | 0.00 | 0.00 | 67 | 1017.7 |
| 20260505024550 | 56 | 101 | 9.0 | 13.0 | 0.00 | 0.00 | 0.00 | 67 | 1017.8 |
| 20260505023044 | 57 | 100 | 10.0 | 16.0 | 0.00 | 0.00 | 0.00 | 66 | 1017.8 |
| 20260505021543 | 57 | 99 | 9.0 | 13.0 | 0.00 | 0.00 | 0.00 | 66 | 1018.0 |
| 20260505020047 | 57 | 99 | 6.0 | 15.0 | 0.00 | 0.00 | 0.00 | 66 | 1018.0 |
| 20260505014546 | 57 | 99 | 7.0 | 16.0 | 0.00 | 0.00 | 0.00 | 66 | 1018.2 |
| 20260505013051 | 57 | 97 | 9.0 | 16.0 | 0.00 | 0.00 | 0.00 | 65 | 1018.1 |
| 20260505011546 | 58 | 94 | 10.0 | 17.0 | 0.00 | 0.00 | 0.00 | 65 | 1018.2 |
| 20260505010056 | 58 | 94 | 10.0 | 18.0 | 0.00 | 0.00 | 0.00 | 65 | 1018.3 |
| 20260505004549 | 58 | 89 | 7.0 | 19.0 | 0.00 | 0.00 | 0.00 | 65 | 1018.5 |
| 20260505003044 | 59 | 101 | 8.0 | 18.0 | 0.00 | 0.00 | 0.00 | 64 | 1018.6 |
| 20260505001545 | 59 | 94 | 8.0 | 19.0 | 0.00 | 0.00 | 0.00 | 64 | 1018.7 |
| 20260505000054 | 59 | 90 | 7.0 | 15.0 | 0.00 | 0.00 | 0.00 | 64 | 1018.8 |
| 20260504234543 | 60 | 89 | 8.0 | 16.0 | 0.00 | 0.00 | 0.00 | 64 | 1018.7 |
| 20260504233045 | 60 | 89 | 8.0 | 18.0 | 0.00 | 0.00 | 0.00 | 63 | 1018.7 |
| 20260504231544 | 60 | 89 | 8.0 | 19.0 | 0.00 | 0.00 | 0.00 | 63 | 1018.7 |
| 20260504230044 | 60 | 88 | 11.0 | 22.0 | 0.00 | 0.00 | 0.00 | 63 | 1018.7 |
| 20260504224545 | 60 | 87 | 10.0 | 22.0 | 0.00 | 0.00 | 0.00 | 62 | 1018.8 |
| 20260504223047 | 61 | 84 | 10.0 | 16.0 | 0.00 | 0.00 | 0.00 | 62 | 1018.8 |
| 20260504221547 | 61 | 84 | 10.0 | 18.0 | 0.00 | 0.00 | 0.00 | 62 | 1018.7 |
| 20260504220100 | 61 | 79 | 10.0 | 17.0 | 0.00 | 0.00 | 0.00 | 62 | 1018.9 |
| 20260504214556 | 61 | 82 | 7.0 | 16.0 | 0.00 | 0.00 | 0.00 | 62 | 1018.8 |
| 20260504213107 | 61 | 82 | 6.0 | 11.0 | 0.00 | 0.00 | 0.00 | 61 | 1018.8 |
| 20260504211555 | 62 | 82 | 6.0 | 16.0 | 0.00 | 0.00 | 0.00 | 61 | 1018.6 |
| 20260504210045 | 62 | 82 | 9.0 | 19.0 | 0.00 | 0.00 | 0.00 | 61 | 1018.6 |
| 20260504204545 | 62 | 85 | 8.0 | 17.0 | 0.00 | 0.00 | 0.00 | 61 | 1018.4 |
| 20260504203047 | 63 | 86 | 5.0 | 13.0 | 0.00 | 0.00 | 0.00 | 61 | 1018.3 |
| 20260504201547 | 63 | 87 | 4.0 | 12.0 | 0.00 | 0.00 | 0.00 | 61 | 1017.8 |
| 20260504200045 | 64 | 87 | 4.0 | 15.0 | 0.00 | 0.00 | 0.00 | 61 | 1017.8 |
| 20260504194545 | 64 | 87 | 5.0 | 12.0 | 0.00 | 0.00 | 0.00 | 61 | 1017.5 |
| 20260504193058 | 65 | 86 | 5.0 | 10.0 | 0.00 | 0.00 | 0.00 | 61 | 1017.4 |
| 20260504191553 | 66 | 87 | 6.0 | 14.0 | 0.00 | 0.00 | 0.00 | 61 | 1017.3 |
| 20260504190054 | 68 | 87 | 8.0 | 18.0 | 0.00 | 0.00 | 0.00 | 62 | 1017.1 |
| 20260504184545 | 69 | 89 | 9.0 | 17.0 | 0.00 | 0.00 | 0.00 | 62 | 1016.8 |
| 20260504183056 | 70 | 94 | 6.0 | 15.0 | 0.00 | 0.00 | 0.00 | 62 | 1016.6 |
| 20260504181552 | 70 | 103 | 9.0 | 16.0 | 0.00 | 0.00 | 0.00 | 63 | 1016.5 |
| 20260504180131 | 71 | 137 | 8.0 | 13.0 | 0.00 | 0.00 | 0.00 | 63 | 1016.4 |
| 20260504174548 | 72 | 158 | 5.0 | 11.0 | 0.00 | 0.00 | 0.00 | 63 | 1016.3 |
| 20260504173052 | 72 | 167 | 6.0 | 13.0 | 0.00 | 0.00 | 0.00 | 64 | 1016.2 |
| 20260504171549 | 73 | 176 | 3.0 | 7.0 | 0.00 | 0.00 | 0.00 | 64 | 1016.2 |